Weather History for Laredo, TX

Change the Weather History Date:

Sunday, April 22, 2012

  Actual Average Record
Temperature  
Mean Temperature 78 °F 78 °F  
Max Temperature 96 °F 89 °F 107 °F (1999)
Min Temperature 59 °F 66 °F 47 °F (1907)
Degree Days  
Heating Degree Days 0 0  
Month to date heating degree days 0 12  
Since 1 July heating degree days 674 925  
Cooling Degree Days 13 13  
Month to date cooling degree days 344 234  
Year to date cooling degree days 772 492  
Growing Degree Days 26 (Base 50)    
Moisture  
Dew Point 39 °F    
Average Humidity 26    
Maximum Humidity 47    
Minimum Humidity 13    
Precipitation  
Precipitation 0.00 in 0.05 in 1.69 in (1962)
Month to date precipitation T 0.93  
Year to date precipitation 1.27 3.89  
Sea Level Pressure  
Sea Level Pressure 30.03 in    
Wind  
Wind Speed 7 mph (SE)    
Max Wind Speed 15 mph    
Max Gust Speed 18 mph    
Visibility 10 miles    
Events      
T = Trace of Precipitation, MM = Missing Value Source: NWS Daily Summary

Daily Weather History Graph

Daily Weather History Graph

Search for Another Location

Airport:

Trip Planner

Search our weather history database for the weather conditions in past years. The results will help you decide how hot, cold, wet, or windy it might be!

Date:

Astronomy

Apr. 22, 2012 Rise Set
Actual Time 7:05 AM CDT 8:06 PM CDT
Civil Twilight 6:41 AM CDT 8:31 PM CDT
Nautical Twilight 6:13 AM CDT 8:59 PM CDT
Astronomical Twilight 5:43 AM CDT 9:29 PM CDT
Moon 7:46 AM CDT (4/22) 9:34 PM CDT (4/22)
Length of Visible Light 13h 49m
Length of Day
13h 00m
New Moon, 2% of the Moon is Illuminated
Apr 22
New Moon
Apr 29
First Quarter
May 5
Full
May 12
Last Quarter
May 20
New

Hourly Weather History & Observations

Time (CDT) Temp. Dew Point Humidity Pressure Visibility Wind Dir Wind Speed Gust Speed Precip Events Conditions
12:56 AM 70.0 °F 38.8 °F 32% 30.03 in 10.0 mi SE 5.8 mph - N/A   Clear
1:56 AM 70.9 °F 36.9 °F 29% 30.02 in 10.0 mi ESE 8.1 mph - N/A   Clear
2:56 AM 66.9 °F 36.0 °F 32% 30.01 in 10.0 mi ESE 4.6 mph - N/A   Clear
3:56 AM 65.8 °F 36.9 °F 34% 30.02 in 10.0 mi SSE 6.9 mph - N/A   Clear
4:56 AM 63.9 °F 36.9 °F 37% 30.02 in 10.0 mi SW 5.8 mph - N/A   Clear
5:56 AM 63.0 °F 36.9 °F 38% 30.03 in 10.0 mi South 3.5 mph - N/A   Clear
6:56 AM 59.9 °F 39.9 °F 48% 30.04 in 10.0 mi East 5.8 mph - N/A   Clear
7:56 AM 63.0 °F 39.9 °F 43% 30.06 in 10.0 mi ESE 4.6 mph - N/A   Clear
8:56 AM 70.0 °F 43.0 °F 38% 30.08 in 10.0 mi SSE 4.6 mph - N/A   Clear
9:56 AM 77.9 °F 41.0 °F 27% 30.09 in 10.0 mi South 6.9 mph - N/A   Clear
10:56 AM 82.9 °F 41.0 °F 23% 30.09 in 10.0 mi SSE 8.1 mph - N/A   Clear
11:56 AM 86.0 °F 38.8 °F 19% 30.09 in 10.0 mi South 4.6 mph - N/A   Clear
12:56 PM 88.9 °F 38.8 °F 17% 30.07 in 10.0 mi ESE 8.1 mph - N/A   Clear
1:56 PM 90.9 °F 37.9 °F 16% 30.05 in 10.0 mi Variable 3.5 mph - N/A   Clear
2:56 PM 92.8 °F 37.9 °F 15% 30.02 in 10.0 mi ESE 6.9 mph - N/A   Clear
3:56 PM 92.8 °F 38.8 °F 15% 30.00 in 10.0 mi Variable 3.5 mph - N/A   Clear
4:56 PM 93.9 °F 36.0 °F 13% 29.98 in 10.0 mi Calm Calm - N/A   Clear
5:56 PM 93.9 °F 36.0 °F 13% 29.96 in 10.0 mi Calm Calm - N/A   Clear
6:56 PM 93.9 °F 36.9 °F 14% 29.97 in 10.0 mi ESE 11.5 mph - N/A   Clear
7:56 PM 90.9 °F 38.8 °F 16% 29.99 in 10.0 mi SE 11.5 mph - N/A   Clear
8:56 PM 86.0 °F 41.9 °F 21% 30.02 in 10.0 mi SE 10.4 mph - N/A   Clear
9:56 PM 81.9 °F 43.9 °F 26% 30.04 in 10.0 mi SE 9.2 mph - N/A   Clear
10:56 PM 79.9 °F 47.8 °F 32% 30.06 in 10.0 mi SSE 13.8 mph - N/A   Clear
11:56 PM 77.0 °F 46.9 °F 34% 30.08 in 10.0 mi SSE 10.4 mph - N/A   Clear